1505516400.62,9037,15.63,73678.3,1.15,-6.31,-4.57,0,*47
1505516401.82,9038,15.63,73680.3,1.15,-6.31,-4.57,0,*48
1505516403.04,9039,15.63,73680.5,1.17,-6.31,-4.57,0,*4B
1505516404.28,9040,15.63,73678.8,1.17,-6.19,-4.57,0,*4F
1505516405.52,9041,15.63,73676.3,1.17,-6.27,-4.57,0,*43
1505516406.75,9042,15.63,73678.0,1.17,-6.27,-4.61,0,*45
1505516407.99,9043,15.63,73674.8,1.17,-6.31,-4.73,0,*40
1505516409.23,9044,15.63,73674.3,1.21,-6.35,-4.69,0,*4D
1505516410.47,9045,15.63,73678.0,1.17,-6.39,-4.85,0,*47
1505516411.71,9046,15.63,73674.0,1.21,-6.35,-4.77,0,*40
1505516412.92,9047,15.63,73676.3,1.17,-6.39,-4.99,0,*48
1505516414.15,9048,15.63,73674.3,1.21,-6.39,-4.93,0,*48
1505516415.38,9049,15.63,73672.5,1.21,-6.39,-4.93,0,*49
1505516416.62,9050,15.63,73678.0,1.21,-6.35,-4.93,0,*4D
1505516417.83,9051,15.63,73670.3,1.17,-6.39,-4.99,0,*4F
1505516419.08,9052,15.63,73670.3,1.21,-6.35,-5.07,0,*43
1505516420.32,9053,15.63,73662.3,1.17,-6.31,-5.19,0,*4C
1505516421.56,9054,15.63,73654.3,1.17,-6.39,-5.27,0,*4E
1505516422.81,9055,15.63,73648.5,1.21,-6.35,-5.23,0,*42
1505516424.02,9056,15.63,73656.3,1.21,-6.35,-5.35,0,*46
1505516425.23,9057,15.63,73656.8,1.21,-6.39,-5.43,0,*4A
1505516426.48,9058,15.63,73656.8,1.21,-6.51,-5.61,0,*4B
1505516427.72,9059,15.63,73662.5,1.21,-6.51,-5.61,0,*4A
1505516428.96,9060,15.63,73662.3,1.21,-6.59,-5.69,0,*40
1505516430.19,9061,15.63,73666.0,1.21,-6.59,-5.73,0,*4A
1505516431.43,9062,15.63,73664.5,1.21,-6.59,-5.85,0,*40
1505516432.65,9063,15.63,73666.5,1.23,-6.55,-5.89,0,*43
1505516433.86,9064,15.63,73670.8,1.17,-6.69,-6.01,0,*4F
1505516435.05,9065,15.63,73670.3,1.23,-6.59,-6.01,0,*4A
1505516436.25,9066,15.63,73666.0,1.21,-6.73,-6.09,0,*4B
1505516437.47,9067,15.63,73666.3,1.23,-6.69,-6.19,0,*42
1505516438.65,9068,15.63,73666.8,1.23,-6.59,-6.05,0,*43
1505516439.84,9069,15.63,73660.3,1.23,-6.55,-6.05,0,*4E
1505516441.05,9070,15.63,73660.3,1.23,-6.69,-6.19,0,*44
1505516442.24,9071,15.63,73662.3,1.23,-6.69,-6.31,0,*4F
1505516443.44,9072,15.63,73664.3,1.23,-6.81,-6.35,0,*4E
1505516444.63,9073,15.63,73666.0,1.23,-6.85,-6.43,0,*4A
1505516445.85,9074,15.63,73658.8,1.23,-6.97,-6.59,0,*45
1505516447.06,9075,15.63,73664.5,1.23,-7.01,-6.69,0,*49
1505516448.25,9076,15.63,73664.5,1.23,-7.15,-6.81,0,*49
1505516449.47,9077,15.63,73668.5,1.23,-7.27,-6.89,0,*41
1505516450.7,9078,15.63,73666.0,1.23,-7.27,-6.97,0,*41
1505516451.94,9079,15.63,73668.8,1.23,-7.27,-6.97,0,*40
1505516453.16,9080,15.63,73672.5,1.23,-7.35,-7.11,0,*4A
1505516454.37,9081,15.63,73672.8,1.23,-7.39,-7.15,0,*43
1505516455.56,9082,15.63,73672.8,1.23,-7.49,-7.15,0,*47
1505516456.8,9083,15.63,73688.0,1.25,-7.61,-7.23,0,*4F
1505516458.01,9084,15.63,73692.3,1.23,-7.61,-7.23,0,*4E
1505516459.26,9085,15.63,73688.3,1.23,-7.65,-7.35,0,*4C
1505516460.5,9086,15.63,73674.0,1.23,-7.77,-7.39,0,*40
1505516461.73,9087,15.63,73666.8,1.23,-7.77,-7.39,0,*41
1505516462.94,9088,15.63,73674.3,1.23,-7.91,-7.49,0,*41
1505516464.15,9089,15.63,73662.5,1.23,-7.95,-7.53,0,*4F
1505516465.4,9090,15.63,73658.0,1.23,-8.07,-7.61,0,*42
1505516466.62,9091,15.63,73662.3,1.23,-8.17,-7.65,0,*46
1505516467.83,9092,15.63,73652.5,1.23,-8.17,-7.65,0,*45
1505516469.05,9093,15.63,73658.8,1.23,-8.29,-7.65,0,*49
1505516470.26,9094,15.63,73658.0,1.23,-8.41,-7.77,0,*43
1505516471.5,9095,15.63,73656.0,1.25,-8.41,-7.69,0,*4B
1505516472.71,9096,15.63,73658.8,1.23,-8.55,-7.69,0,*4B
1505516473.93,9097,15.63,73656.3,1.23,-8.55,-7.69,0,*4A
1505516475.15,9098,15.63,73662.3,1.23,-8.55,-7.77,0,*4A
1505516476.36,9099,15.63,73660.5,1.23,-8.63,-7.69,0,*41
1505516477.6,9100,15.63,73660.8,1.25,-8.71,-7.77,0,*4A
1505516478.82,9101,15.63,73660.3,1.23,-8.71,-7.69,0,*42
1505516480.04,9102,15.63,73660.8,1.23,-8.75,-7.69,0,*45
1505516481.26,9103,15.63,73658.5,1.23,-8.85,-7.65,0,*47
1505516482.48,9104,15.63,73656.3,1.23,-8.89,-7.65,0,*4C
1505516483.71,9105,15.63,73658.3,1.23,-9.01,-7.61,0,*48
1505516484.96,9106,15.63,73660.3,1.23,-9.11,-7.61,0,*4A
1505516486.21,9107,15.63,73660.5,1.23,-9.15,-7.61,0,*4F
1505516487.43,9108,15.63,73664.5,1.23,-9.23,-7.61,0,*45
1505516488.69,9109,15.63,73664.3,1.21,-9.45,-7.43,0,*46
1505516489.94,9110,15.63,73662.0,1.23,-9.37,-7.35,0,*48
1505516491.18,9111,15.63,73660.3,1.23,-9.41,-7.35,0,*48
1505516492.44,9112,15.63,73662.5,1.21,-9.45,-7.31,0,*49
1505516493.7,9113,15.63,73662.0,1.21,-9.49,-7.27,0,*43
1505516494.96,9114,15.63,73668.3,1.21,-9.49,-7.27,0,*44
1505516496.19,9115,15.63,73670.5,1.21,-9.57,-7.15,0,*4B
1505516497.44,9116,15.63,73672.8,1.17,-9.61,-7.01,0,*4D
1505516498.7,9117,15.63,73676.5,1.21,-9.49,-7.01,0,*43
1505516499.93,9118,15.63,73682.0,1.21,-9.49,-6.89,0,*4D
1505516501.19,9119,15.63,73686.5,1.21,-9.49,-6.63,0,*48
1505516502.45,9120,15.63,73682.3,1.21,-9.45,-6.63,0,*4E
1505516503.69,9121,15.63,73678.0,1.17,-9.45,-6.51,0,*4B
1505516504.91,9122,15.63,73678.8,1.21,-9.31,-6.47,0,*49
1505516506.12,9123,15.63,73676.3,1.17,-9.31,-6.43,0,*49
1505516507.33,9124,15.63,73676.8,1.21,-9.19,-6.35,0,*40
1505516508.58,9125,15.63,73678.5,1.17,-9.11,-6.31,0,*48
1505516509.8,9126,15.63,73682.0,1.21,-9.01,-6.13,0,*4F
1505516511.01,9127,15.63,73682.8,1.21,-8.89,-6.05,0,*48
1505516512.22,9128,15.63,73680.8,1.21,-8.89,-6.05,0,*47
1505516513.44,9129,15.63,73684.5,1.17,-8.85,-5.97,0,*47
1505516514.7,9130,15.63,73690.5,1.21,-8.81,-5.93,0,*4A
1505516515.94,9131,15.56,73688.3,1.21,-8.63,-5.85,0,*40
1505516517.18,9132,15.63,73692.8,1.21,-8.63,-5.73,0,*4A
1505516518.44,9133,15.63,73692.5,1.21,-8.51,-5.69,0,*41
1505516519.68,9134,15.63,73694.3,1.21,-8.37,-5.61,0,*4E
1505516520.89,9135,15.63,73696.0,1.21,-8.33,-5.55,0,*4C
1505516522.11,9136,15.63,73696.5,1.21,-8.21,-5.55,0,*4C
1505516523.35,9137,15.63,73692.5,1.21,-8.11,-5.47,0,*4D
1505516524.56,9138,15.63,73698.3,1.17,-8.17,-5.39,0,*48
1505516525.79,9139,15.63,73694.8,1.17,-8.03,-5.39,0,*4C
1505516527.03,9140,15.63,73692.8,1.17,-8.03,-5.51,0,*4C
1505516528.27,9141,15.63,73696.3,1.17,-7.91,-5.47,0,*4E
1505516529.5,9142,15.63,73694.5,1.17,-7.91,-5.35,0,*48
1505516530.71,9143,15.63,73688.3,1.17,-7.87,-5.35,0,*4E
1505516531.95,9144,15.63,73686.8,1.17,-7.77,-5.39,0,*4A
1505516533.21,9145,15.63,73690.5,1.17,-7.69,-5.19,0,*46
1505516534.48,9146,15.63,73694.3,1.17,-7.57,-5.19,0,*48
1505516535.76,9147,15.63,73692.5,1.17,-7.57,-5.27,0,*44
1505516537.0,9148,15.63,73696.0,1.17,-7.49,-5.27,0,*44
1505516538.26,9149,15.63,73696.3,1.21,-7.39,-5.15,0,*46
1505516539.52,9150,15.63,73698.5,1.17,-7.35,-5.19,0,*4B
1505516540.77,9151,15.63,73696.8,1.17,-7.19,-5.11,0,*4C
1505516542.01,9152,15.63,73700.3,1.17,-7.19,-5.07,0,*48
1505516543.26,9153,15.63,73698.8,1.17,-7.11,-5.07,0,*41
1505516544.53,9154,15.63,73702.5,1.21,-7.01,-5.03,0,*46
1505516545.8,9155,15.63,73704.0,1.21,-7.05,-5.07,0,*47
1505516547.06,9156,15.63,73700.0,1.17,-6.97,-5.11,0,*4C
1505516548.33,9157,15.63,73696.8,1.17,-6.93,-4.93,0,*42
1505516549.57,9158,15.63,73698.5,1.17,-6.81,-4.93,0,*4E
1505516550.81,9159,15.63,73688.8,1.17,-6.77,-4.93,0,*46
1505516552.04,9160,15.63,73688.5,1.17,-6.69,-4.85,0,*44
1505516553.3,9161,15.63,73684.5,1.17,-6.63,-4.81,0,*4B
1505516554.54,9162,15.63,73682.3,1.21,-6.47,-4.77,0,*42
1505516555.78,9163,15.63,73680.8,1.17,-6.51,-4.81,0,*48
1505516557.02,9164,15.63,73680.3,1.17,-6.55,-4.85,0,*4F
1505516558.26,9165,15.63,73682.0,1.17,-6.55,-4.81,0,*4A
1505516559.5,9166,15.63,73680.3,1.17,-6.43,-4.85,0,*4A
1505516560.75,9167,15.63,73682.8,1.17,-6.43,-4.85,0,*4B
1505516561.98,9168,15.63,73682.0,1.17,-6.39,-4.81,0,*4D
1505516563.22,9169,15.63,73686.8,1.17,-6.31,-4.81,0,*44
1505516564.47,9170,15.63,73684.0,1.17,-6.31,-4.81,0,*4C
1505516565.71,9171,15.63,73682.5,1.17,-6.31,-4.81,0,*4D
1505516566.97,9172,15.63,73682.5,1.17,-6.19,-4.81,0,*44
1505516568.21,9173,15.63,73680.0,1.21,-6.13,-4.77,0,*43
1505516569.44,9174,15.63,73680.3,1.21,-6.05,-4.69,0,*4C
1505516570.69,9175,15.63,73676.8,1.17,-6.01,-4.69,0,*4C
1505516571.93,9176,15.63,73680.8,1.17,-6.01,-4.69,0,*4F
1505516573.17,9177,15.63,73680.0,1.17,-6.01,-4.69,0,*4E
1505516574.41,9178,15.63,73682.5,1.17,-5.97,-4.69,0,*4D
1505516575.64,9179,15.63,73678.5,1.17,-5.97,-4.73,0,*47
1505516576.91,9180,15.63,73676.3,1.17,-5.89,-4.69,0,*45
1505516578.18,9181,15.63,73680.0,1.17,-5.85,-4.69,0,*48
1505516579.44,9182,15.63,73678.3,1.21,-5.81,-4.69,0,*4A
1505516580.71,9183,15.63,73680.5,1.17,-5.89,-4.73,0,*4D
1505516581.95,9184,15.63,73676.8,1.21,-5.81,-4.65,0,*40
1505516583.21,9185,15.63,73682.0,1.17,-5.89,-4.69,0,*40
1505516584.48,9186,15.63,73678.5,1.17,-5.85,-4.73,0,*44
1505516585.72,9187,15.63,73676.0,1.17,-5.89,-4.65,0,*4E
1505516586.99,9188,15.63,73678.0,1.17,-5.85,-4.73,0,*4A
1505516588.26,9189,15.63,73682.0,1.17,-5.85,-4.73,0,*4B
1505516589.52,9190,15.63,73682.8,1.21,-5.85,-4.69,0,*4D
1505516590.79,9191,15.63,73678.3,1.21,-5.81,-4.69,0,*48
1505516592.05,9192,15.63,73678.3,1.17,-5.89,-4.81,0,*40
1505516593.29,9193,15.63,73678.8,1.17,-6.01,-4.81,0,*42
1505516594.53,9194,15.63,73680.0,1.17,-5.97,-4.81,0,*49
1505516595.77,9195,15.63,73682.0,1.17,-5.97,-4.81,0,*48
1505516597.02,9196,15.63,73680.8,1.17,-5.97,-4.85,0,*4F
1505516598.26,9197,15.63,73684.5,1.17,-5.97,-4.85,0,*4E
1505516599.5,9198,15.63,73680.0,1.17,-5.97,-4.85,0,*41
1505516600.74,9199,15.63,73678.8,1.17,-6.01,-4.85,0,*4C
1505516602.01,9200,15.63,73680.5,1.17,-5.89,-4.85,0,*4C
1505516603.27,9201,15.63,73680.5,1.21,-5.85,-4.77,0,*49
1505516604.53,9202,15.63,73680.8,1.17,-5.89,-4.85,0,*4E
1505516605.78,9203,15.63,73678.5,1.17,-5.97,-4.85,0,*40
1505516607.02,9204,15.63,73680.0,1.17,-5.97,-4.85,0,*47
1505516608.28,9205,15.63,73682.5,1.17,-5.89,-4.85,0,*49
1505516609.55,9206,15.63,73680.0,1.17,-5.89,-4.85,0,*4A
1505516610.82,9207,15.63,73680.5,1.17,-5.85,-4.85,0,*47
1505516612.09,9208,15.63,73678.3,1.21,-5.85,-4.81,0,*49
1505516613.36,9209,15.63,73680.5,1.17,-5.85,-4.81,0,*4D
1505516614.62,9210,15.63,73682.8,1.17,-5.89,-4.93,0,*4A
1505516615.89,9211,15.63,73682.5,1.17,-5.85,-4.85,0,*40
1505516617.16,9212,15.63,73686.5,1.17,-5.85,-4.89,0,*4F
1505516618.4,9213,15.63,73688.5,1.17,-5.85,-4.99,0,*4F
1505516619.67,9214,15.63,73684.0,1.17,-5.85,-4.93,0,*42
1505516620.92,9215,15.63,73680.5,1.21,-5.73,-4.81,0,*4C
1505516622.19,9216,15.63,73680.3,1.21,-5.69,-4.81,0,*44
1505516623.45,9217,15.63,73680.3,1.21,-5.69,-4.81,0,*45
1505516624.71,9218,15.63,73680.8,1.17,-5.73,-4.85,0,*40
1505516625.97,9219,15.63,73682.8,1.17,-5.73,-4.81,0,*45
1505516627.22,9220,15.63,73680.0,1.21,-5.73,-4.77,0,*43
1505516628.48,9221,15.63,73680.8,1.17,-5.73,-4.85,0,*4A
1505516629.72,9222,15.63,73678.3,1.17,-5.77,-4.99,0,*40
1505516630.98,9223,15.63,73678.5,1.17,-5.73,-4.93,0,*4F
1505516632.24,9224,15.63,73674.8,1.17,-5.77,-4.85,0,*4B
1505516633.48,9225,15.63,73672.0,1.17,-5.77,-4.99,0,*47
1505516634.71,9226,15.63,73674.0,1.17,-5.77,-4.99,0,*44
1505516635.95,9227,15.63,73670.5,1.17,-5.85,-4.99,0,*48
1505516637.2,9228,15.63,73672.5,1.17,-5.85,-4.99,0,*47
1505516638.47,9229,15.63,73670.8,1.21,-5.93,-5.03,0,*46
1505516639.68,9230,15.63,73668.8,1.23,-5.81,-4.99,0,*4D
1505516640.94,9231,15.63,73670.5,1.21,-5.85,-4.93,0,*40
1505516642.21,9232,15.63,73676.0,1.21,-5.85,-4.93,0,*43
1505516643.45,9233,15.63,73672.0,1.17,-5.85,-4.99,0,*4D
1505516644.72,9234,15.63,73668.0,1.21,-5.93,-5.03,0,*4A
1505516645.99,9235,15.63,73664.8,1.21,-5.93,-5.07,0,*4F
1505516647.23,9236,15.63,73646.8,1.21,-5.97,-5.15,0,*4B
1505516648.47,9237,15.63,73644.5,1.21,-6.05,-5.23,0,*47
1505516649.71,9238,15.63,73642.0,1.21,-6.05,-5.15,0,*4D
1505516650.94,9239,15.63,73652.0,1.21,-6.05,-5.15,0,*4C
1505516652.18,9240,15.63,73654.3,1.21,-5.97,-5.15,0,*4A
1505516653.45,9241,15.63,73664.0,1.21,-6.23,-5.23,0,*42
1505516654.71,9242,15.63,73662.8,1.21,-6.23,-5.31,0,*42
1505516655.96,9243,15.63,73664.8,1.23,-6.19,-5.31,0,*48
1505516657.18,9244,15.63,73666.5,1.23,-6.09,-5.31,0,*4E
1505516658.43,9245,15.63,73668.3,1.23,-6.19,-5.31,0,*4E
1505516659.64,9246,15.63,73670.3,1.23,-6.23,-5.43,0,*41
1505516660.84,9247,15.63,73674.5,1.23,-6.35,-5.51,0,*44
1505516662.03,9248,15.63,73674.0,1.23,-6.43,-5.51,0,*4A
1505516663.23,9249,15.63,73674.5,1.23,-6.43,-5.55,0,*4F
1505516664.43,9250,15.63,73674.3,1.23,-6.55,-5.55,0,*40
1505516665.64,9251,15.63,73678.0,1.23,-6.59,-5.69,0,*42
1505516666.86,9252,15.63,73678.3,1.23,-6.59,-5.65,0,*4D
1505516668.07,9253,15.63,73678.8,1.23,-6.69,-5.69,0,*43
1505516669.28,9254,15.63,73676.3,1.23,-6.69,-5.69,0,*44
1505516670.51,9255,15.63,73676.8,1.21,-6.73,-5.73,0,*47
1505516671.73,9256,15.63,73676.3,1.23,-6.69,-5.65,0,*4A
1505516672.96,9257,15.63,73674.3,1.25,-6.69,-5.65,0,*4D
1505516674.19,9258,15.63,73672.5,1.21,-6.73,-5.73,0,*4A
1505516675.42,9259,15.63,73672.8,1.25,-6.73,-5.69,0,*44
1505516676.64,9260,15.63,73672.8,1.23,-6.73,-5.69,0,*48
1505516677.85,9261,15.63,73674.0,1.23,-6.73,-5.69,0,*49
1505516679.06,9262,15.63,73674.3,1.23,-6.69,-5.69,0,*41
1505516680.28,9263,15.63,73674.5,1.23,-6.73,-5.69,0,*4B
1505516681.49,9264,15.63,73674.3,1.23,-6.73,-5.69,0,*4C
1505516682.71,9265,15.63,73676.3,1.23,-6.69,-5.69,0,*46
1505516683.94,9266,15.63,73678.5,1.21,-6.73,-5.73,0,*47
1505516685.17,9267,15.63,73676.3,1.21,-6.73,-5.73,0,*46
1505516686.42,9268,15.63,73678.0,1.21,-6.63,-5.69,0,*43
1505516687.66,9269,15.63,73678.5,1.21,-6.77,-5.81,0,*41
1505516688.9,9270,15.63,73676.8,1.21,-6.73,-5.81,0,*4D
1505516690.13,9271,15.63,73670.5,1.21,-6.85,-5.81,0,*45
1505516691.37,9272,15.63,73670.5,1.21,-6.77,-5.81,0,*4B
1505516692.61,9273,15.63,73674.0,1.21,-6.77,-5.93,0,*49
1505516693.83,9274,15.63,73672.5,1.23,-6.81,-5.93,0,*45
1505516695.05,9275,15.63,73674.3,1.23,-6.73,-5.89,0,*42
1505516696.27,9276,15.63,73676.8,1.23,-6.81,-5.93,0,*47
1505516697.48,9277,15.63,73676.0,1.21,-6.85,-6.05,0,*4C
1505516698.68,9278,15.63,73678.8,1.21,-6.89,-6.05,0,*4F
1505516699.87,9279,15.63,73678.5,1.23,-6.81,-6.01,0,*40
1505516701.08,9280,15.63,73678.3,1.21,-6.77,-6.05,0,*49
1505516702.29,9281,15.63,73678.5,1.21,-6.77,-6.09,0,*44
1505516703.48,9282,15.63,73682.5,1.23,-6.81,-6.05,0,*40
1505516704.72,9283,15.63,73676.3,1.17,-6.93,-6.13,0,*42
1505516705.95,9284,15.63,73682.0,1.21,-6.89,-6.23,0,*48
1505516707.18,9285,15.63,73680.5,1.21,-6.89,-6.23,0,*49
1505516708.41,9286,15.63,73682.8,1.21,-6.89,-6.23,0,*4A
1505516709.65,9287,15.63,73682.5,1.17,-6.81,-6.27,0,*42
1505516710.88,9288,15.63,73680.0,1.21,-6.85,-6.23,0,*48
1505516712.09,9289,15.63,73682.0,1.21,-6.77,-6.13,0,*47
1505516713.32,9290,15.63,73680.5,1.21,-6.85,-6.23,0,*41
1505516714.54,9291,15.63,73680.8,1.21,-6.77,-6.35,0,*4A
1505516715.75,9292,15.63,73680.0,1.17,-6.89,-6.39,0,*41
1505516716.96,9293,15.63,73678.8,1.17,-6.89,-6.39,0,*40
1505516718.17,9294,15.63,73680.0,1.21,-6.89,-6.39,0,*42
1505516719.37,9295,15.63,73678.3,1.21,-6.89,-6.39,0,*43
1505516720.62,9296,15.63,73678.0,1.17,-6.97,-6.51,0,*44
1505516721.85,9297,15.63,73678.0,1.17,-7.05,-6.51,0,*4F
1505516723.09,9298,15.63,73678.0,1.21,-6.93,-6.39,0,*45
1505516724.3,9299,15.63,73680.8,1.21,-6.89,-6.39,0,*4F
1505516725.51,9300,15.63,73682.0,1.21,-6.89,-6.39,0,*4E
1505516726.71,9301,15.63,73682.0,1.21,-6.89,-6.39,0,*4F
1505516727.93,9302,15.63,73682.8,1.17,-6.89,-6.43,0,*44
1505516729.14,9303,15.63,73678.5,1.17,-6.89,-6.51,0,*46
1505516730.38,9304,15.63,73678.0,1.21,-6.93,-6.59,0,*47
1505516731.65,9305,15.63,73678.0,1.17,-6.97,-6.63,0,*4E
1505516732.91,9306,15.63,73678.3,1.17,-7.05,-6.63,0,*47
1505516734.14,9307,15.63,73678.8,1.21,-6.89,-6.63,0,*46
1505516735.41,9308,15.56,73674.8,1.17,-6.97,-6.63,0,*43
1505516736.65,9309,15.63,73674.3,1.17,-6.93,-6.55,0,*43
1505516737.86,9310,15.63,73680.0,1.21,-6.89,-6.59,0,*49
1505516739.1,9311,15.63,73680.0,1.17,-7.05,-6.69,0,*4B
1505516740.36,9312,15.63,73678.0,1.17,-6.93,-6.63,0,*4C
1505516741.63,9313,15.63,73680.3,1.17,-6.97,-6.63,0,*49
1505516742.86,9314,15.63,73678.8,1.17,-6.97,-6.69,0,*44
1505516744.1,9315,15.63,73678.5,1.17,-6.97,-6.69,0,*45
1505516745.32,9316,15.63,73680.5,1.15,-6.93,-6.55,0,*4F
1505516746.52,9317,15.63,73678.5,1.15,-6.89,-6.51,0,*41
1505516747.76,9318,15.63,73682.5,1.17,-6.93,-6.43,0,*44
1505516749.0,9319,15.63,73672.8,1.13,-6.97,-6.43,0,*45
1505516750.2,9320,15.63,73674.5,1.15,-6.89,-6.51,0,*45
1505516751.42,9321,15.63,73678.5,1.15,-6.97,-6.43,0,*48
1505516752.64,9322,15.63,73674.5,1.15,-6.93,-6.43,0,*4F
1505516753.86,9323,15.63,73678.3,1.15,-6.93,-6.43,0,*4E
1505516755.09,9324,15.63,73678.0,1.15,-6.93,-6.43,0,*49
1505516756.31,9325,15.63,73680.3,1.15,-6.93,-6.39,0,*45
1505516757.53,9326,15.63,73678.8,1.15,-6.93,-6.43,0,*4B
1505516758.75,9327,15.63,73680.5,1.15,-6.97,-6.43,0,*4E
1505516760.0,9328,15.63,73678.8,1.13,-6.97,-6.35,0,*46
1505516761.19,9329,15.63,73678.8,1.15,-6.89,-6.39,0,*42
1505516762.41,9330,15.63,73674.8,1.15,-6.89,-6.19,0,*48
1505516763.62,9331,15.63,73676.5,1.15,-6.85,-6.23,0,*4C
1505516764.84,9332,15.63,73672.5,1.15,-6.89,-6.27,0,*47
1505516766.06,9333,15.63,73674.5,1.15,-6.81,-6.19,0,*43
1505516767.25,9334,15.63,73674.8,1.15,-6.77,-6.13,0,*47
1505516768.45,9335,15.63,73674.5,1.15,-6.77,-6.13,0,*46
1505516769.67,9336,15.63,73676.8,1.15,-6.73,-6.19,0,*4B
1505516770.85,9337,15.63,73674.3,1.15,-6.69,-6.13,0,*4B
1505516772.05,9338,15.63,73674.0,1.15,-6.77,-6.13,0,*4B
1505516773.3,9339,15.63,73676.0,1.13,-6.81,-6.19,0,*4F
1505516774.51,9340,15.63,73676.0,1.13,-6.73,-6.13,0,*46
1505516775.72,9341,15.63,73678.0,1.15,-6.69,-6.19,0,*40
1505516776.92,9342,15.63,73678.3,1.15,-6.81,-6.09,0,*44
1505516778.11,9343,15.63,73676.3,1.15,-6.81,-6.13,0,*4E
1505516779.3,9344,15.63,73680.0,1.15,-6.77,-6.09,0,*4B
1505516780.5,9345,15.63,73680.5,1.15,-6.77,-6.09,0,*4A
1505516781.71,9346,15.63,73678.0,1.13,-6.73,-6.13,0,*40
1505516782.93,9347,15.63,73678.5,1.13,-6.77,-6.13,0,*45
1505516784.14,9348,15.63,73678.0,1.13,-6.73,-6.01,0,*4D
1505516785.35,9349,15.63,73682.0,1.13,-6.73,-6.05,0,*48
1505516786.56,9350,15.63,73678.3,1.13,-6.69,-6.01,0,*4F
1505516787.77,9351,15.63,73674.3,1.15,-6.63,-6.01,0,*42
1505516788.98,9352,15.63,73674.8,1.13,-6.69,-6.01,0,*4D
1505516790.19,9353,15.63,73672.5,1.13,-6.69,-6.01,0,*4C
1505516791.4,9354,15.63,73674.3,1.15,-6.63,-5.97,0,*4B
1505516792.62,9355,15.63,73670.3,1.13,-6.59,-6.01,0,*49
1505516793.83,9356,15.56,73666.0,1.13,-6.59,-6.05,0,*4E
1505516795.04,9357,15.63,73670.0,1.13,-6.55,-6.05,0,*43
1505516796.26,9358,15.63,73670.8,1.13,-6.59,-6.13,0,*47
1505516797.47,9359,15.63,73666.8,1.13,-6.55,-6.01,0,*49
1505516798.69,9360,15.63,73664.5,1.13,-6.59,-6.05,0,*4B
1505516799.9,9361,15.63,73668.5,1.13,-6.55,-6.05,0,*46
1505516801.12,9362,15.63,73666.0,1.13,-6.55,-6.05,0,*45
1505516802.33,9363,15.63,73662.5,1.13,-6.43,-6.01,0,*47
1505516803.54,9364,15.63,73664.5,1.13,-6.47,-6.01,0,*44
1505516804.76,9365,15.63,73668.0,1.13,-6.43,-6.05,0,*45
1505516805.97,9366,15.63,73664.5,1.13,-6.43,-6.01,0,*42
1505516807.16,9367,15.63,73660.3,1.15,-6.39,-6.01,0,*48
1505516808.35,9368,15.63,73664.8,1.15,-6.31,-6.01,0,*4F
1505516809.57,9369,15.63,73662.8,1.13,-6.35,-6.01,0,*4C
1505516810.79,9370,15.63,73662.8,1.13,-6.43,-6.05,0,*41
1505516812.0,9371,15.63,73660.8,1.13,-6.43,-6.05,0,*40
1505516813.21,9372,15.63,73660.5,1.13,-6.43,-6.05,0,*43
1505516814.43,9373,15.63,73662.5,1.13,-6.35,-6.05,0,*43
1505516815.65,9374,15.63,73660.0,1.13,-6.43,-6.01,0,*41
1505516816.86,9375,15.63,73660.0,1.13,-6.47,-6.13,0,*47
1505516818.1,9376,15.63,73660.3,1.13,-6.55,-6.19,0,*4D
1505516819.35,9377,15.63,73656.5,1.13,-6.59,-6.19,0,*40
1505516820.59,9378,15.63,73658.0,1.13,-6.69,-6.19,0,*4C
1505516821.82,9379,15.63,73658.5,1.13,-6.69,-6.23,0,*44
1505516823.03,9380,15.63,73656.8,1.13,-6.69,-6.13,0,*41
1505516824.28,9381,15.63,73656.3,1.13,-6.73,-6.19,0,*41
1505516825.51,9382,15.63,73656.0,1.11,-6.93,-6.23,0,*47
1505516826.75,9383,15.63,73652.3,1.13,-6.81,-6.23,0,*47
1505516827.97,9384,15.63,73656.0,1.11,-6.85,-6.23,0,*46
1505516829.18,9385,15.63,73654.0,1.11,-6.73,-6.19,0,*47
1505516830.37,9386,15.63,73658.8,1.11,-6.85,-6.31,0,*47
1505516831.59,9387,15.63,73660.5,1.09,-6.85,-6.35,0,*4B
1505516832.81,9388,15.63,73656.5,1.11,-6.85,-6.19,0,*43
1505516833.99,9389,15.63,73662.8,1.11,-6.85,-6.13,0,*48
1505516835.24,9390,15.63,73656.8,1.11,-6.93,-6.19,0,*4D
1505516836.48,9391,15.63,73660.5,1.11,-6.93,-6.19,0,*4C
1505516837.75,9392,15.63,73664.8,1.09,-7.01,-6.19,0,*4C
1505516838.94,9393,15.63,73666.0,1.11,-6.85,-6.13,0,*43
1505516840.15,9394,15.63,73664.0,1.11,-6.97,-6.05,0,*40
1505516841.36,9395,15.63,73666.0,1.11,-6.97,-6.05,0,*41
1505516842.6,9396,15.63,73662.8,1.09,-6.97,-5.97,0,*43
1505516843.87,9397,15.63,73666.0,1.09,-6.97,-5.93,0,*46
1505516845.09,9398,15.63,73666.8,1.11,-6.85,-5.89,0,*48
1505516846.3,9399,15.63,73668.5,1.11,-6.85,-5.81,0,*41
1505516847.57,9400,15.63,73666.0,1.09,-6.97,-5.85,0,*48
1505516848.78,9401,15.63,73666.8,1.11,-6.85,-5.77,0,*4E
1505516850.05,9402,15.63,73670.3,1.09,-6.97,-5.73,0,*43
1505516851.29,9403,15.63,73666.8,1.11,-6.93,-5.77,0,*4B
1505516852.53,9404,15.63,73674.5,1.11,-6.97,-5.77,0,*48
1505516853.79,9405,15.63,73672.8,1.09,-7.05,-5.81,0,*43
1505516855.03,9406,15.63,73676.8,1.09,-7.15,-5.81,0,*41
1505516856.27,9407,15.63,73676.0,1.11,-7.01,-5.77,0,*45
1505516857.53,9408,15.63,73674.8,1.09,-7.05,-5.73,0,*43
1505516858.79,9409,15.63,73678.0,1.09,-7.01,-5.73,0,*46
1505516860.05,9410,15.63,73672.0,1.09,-7.05,-5.73,0,*4A
1505516861.31,9411,15.63,73674.5,1.09,-7.05,-5.61,0,*48
1505516862.55,9412,15.63,73676.3,1.09,-7.15,-5.73,0,*49
1505516863.8,9413,15.63,73674.0,1.07,-7.19,-5.65,0,*4D
1505516865.05,9414,15.63,73672.3,1.09,-6.97,-5.55,0,*40
1505516866.29,9415,15.63,73668.5,1.09,-6.97,-5.55,0,*41
1505516867.53,9416,15.63,73668.5,1.09,-6.97,-5.47,0,*41
1505516868.8,9417,15.63,73664.3,1.07,-7.05,-5.65,0,*44
1505516870.04,9418,15.63,73666.8,1.07,-7.05,-5.47,0,*4B
1505516871.28,9419,15.63,73662.0,1.07,-7.05,-5.47,0,*4A
1505516872.55,9420,15.63,73658.8,1.07,-7.05,-5.31,0,*41
1505516873.8,9421,15.63,73664.8,1.05,-7.05,-5.31,0,*42
1505516875.04,9422,15.63,73668.5,1.07,-7.01,-5.39,0,*4F
1505516876.31,9423,15.63,73668.5,1.07,-7.01,-5.23,0,*45
1505516877.56,9424,15.63,73662.3,1.07,-6.89,-5.11,0,*42
1505516878.81,9425,15.63,73662.8,1.07,-6.89,-5.11,0,*43
1505516880.04,9426,15.63,73656.8,1.09,-6.73,-4.93,0,*40
1505516881.29,9427,15.63,73666.3,1.07,-6.89,-5.11,0,*41
1505516882.54,9428,15.63,73666.0,1.09,-6.77,-5.03,0,*42
1505516883.78,9429,15.63,73664.8,1.09,-6.73,-4.89,0,*44
1505516885.01,9430,15.63,73666.8,1.09,-6.73,-4.93,0,*47
1505516886.26,9431,15.63,73654.5,1.09,-6.77,-4.89,0,*49
1505516887.5,9432,15.63,73666.8,1.09,-6.73,-4.89,0,*4E
1505516888.76,9433,15.63,73664.5,1.09,-6.97,-4.93,0,*4E
1505516890.03,9434,15.63,73668.8,1.09,-7.05,-5.07,0,*4F
1505516891.26,9435,15.63,73670.3,1.11,-7.15,-5.23,0,*40
1505516892.5,9436,15.63,73672.3,1.09,-7.19,-5.19,0,*4F
1505516893.77,9437,15.63,73674.0,1.09,-7.05,-5.07,0,*4C
1505516895.04,9438,15.63,73678.5,1.09,-7.05,-5.03,0,*47
1505516896.31,9439,15.63,73674.5,1.09,-7.05,-5.03,0,*46
1505516897.58,9440,15.63,73674.8,1.09,-6.97,-5.03,0,*42
1505516898.85,9441,15.56,73674.0,1.09,-6.97,-4.89,0,*40
1505516900.1,9442,15.63,73678.0,1.11,-6.97,-4.89,0,*4A
1505516901.36,9443,15.63,73676.5,1.09,-7.01,-4.93,0,*47
1505516902.62,9444,15.63,73678.8,1.09,-7.01,-4.93,0,*40
1505516903.86,9445,15.63,73674.8,1.11,-7.01,-4.85,0,*4F
1505516905.13,9446,15.63,73674.8,1.09,-7.05,-5.03,0,*4E
1505516906.38,9447,15.63,73672.0,1.11,-6.97,-4.85,0,*43
1505516907.64,9448,15.63,73674.8,1.09,-7.01,-4.81,0,*4F
1505516908.91,9449,15.63,73674.8,1.09,-7.01,-4.89,0,*46
1505516910.18,9450,15.63,73670.0,1.09,-6.97,-4.89,0,*40
1505516911.44,9451,15.63,73674.8,1.09,-7.05,-4.93,0,*40
1505516912.7,9452,15.63,73674.5,1.09,-7.05,-4.89,0,*48
1505516913.97,9453,15.63,73678.3,1.09,-7.05,-4.89,0,*49
1505516915.21,9454,15.63,73670.0,1.11,-7.01,-4.85,0,*4F
1505516916.48,9455,15.63,73670.5,1.09,-7.01,-4.81,0,*43
1505516917.72,9456,15.63,73672.0,1.11,-6.93,-4.73,0,*4E
1505516918.96,9457,15.63,73672.0,1.11,-6.93,-4.73,0,*4F
1505516920.2,9458,15.63,73672.0,1.09,-6.89,-4.77,0,*46
1505516921.44,9459,15.63,73670.8,1.11,-6.97,-4.73,0,*45
1505516922.7,9460,15.63,73684.0,1.09,-7.01,-4.77,0,*4C
1505516923.94,9461,15.63,73674.0,1.11,-7.01,-4.73,0,*40
1505516925.18,9462,15.63,73670.3,1.09,-6.89,-4.77,0,*4F
1505516926.4,9463,15.63,73666.8,1.09,-6.77,-4.65,0,*4C
1505516927.62,9464,15.63,73670.0,1.09,-6.77,-4.65,0,*4B
1505516928.84,9465,15.63,73664.3,1.09,-6.77,-4.65,0,*4A